Regional Weather Roundup
Issued by NWS

Home | Current Version | Previous Version | Text Only | Print | Product List | Glossary On
Versions: 1 2 3 4 5 6 7 8 9 10 11 12 13 14 15 16 17 18 19 20 21 22 23 24 25 26 27
000
ASUS44 KJAN 281410
RWRMS

MISSISSIPPI HOURLY WEATHER ROUNDUP
NATIONAL WEATHER SERVICE JACKSON MS
900 AM CDT WED JUN 28 2017

NOTE: "FAIR: INDICATES FEW OR NO CLOUDS BELOW 12,000 FEET WITH NO
SIGNIFICANT WEATHER AND/OR OBSTRUCTIONS TO VISIBILITY.

MSZ001>002-007>008-010>013-018>021-025>028-034>036-281500-
NORTHWEST MISSISSIPPI

CITY           SKY/WX    TMP DP  RH WIND       PRES   REMARKS
BATESVILLE     FAIR      77  63  61 SE8       30.09R
CLARKSDALE       N/A     79  70  73 SE6       30.08R
CLEVELAND      FAIR      78  69  73 SE5       30.06S
GREENWOOD      SUNNY     78  68  71 E3        30.07S
GREENVILLE     SUNNY     77  67  71 SE5       30.05F
OLIVE BRANCH   MOSUNNY  N/A N/A N/A SE5       30.08R
OXFORD         FAIR      75  61  60 SE9       30.11S
TUNICA           N/A     75  64  69 SE5       30.08S
WINONA         FAIR      74  67  80 CALM      30.08F
$$

MSZ003>006-009-014>017-022>024-029>033-037>039-281500-
NORTHEAST MISSISSIPPI

CITY           SKY/WX    TMP DP  RH WIND       PRES   REMARKS
COLUMBUS AFB   SUNNY     76  67  72 SE6       30.10R
CORINTH        FAIR      75  61  60 SE8       30.11S
STARKVILLE     FAIR      77  64  65 S5        30.11S
TUPELO         SUNNY     77  60  55 SE7       30.09F
$$

MSZ040-058-281500-
CENTRAL MISSISSIPPI

CITY           SKY/WX    TMP DP  RH WIND       PRES   REMARKS
JACKSON INTL   SUNNY     80  66  62 E6        30.07R
JACKSON HAWKNS SUNNY     80  67  64 SE5       30.07R
MADISON        FAIR      77  66  69 CALM      30.07R
MERIDIAN KEY   SUNNY     81  68  64 E7        30.08R
MERIDIAN NAS   MOSUNNY   80  66  62 E5        30.09R
RAYMOND        FAIR      79  70  73 E5        30.06R
VICKSBURG VKS  SUNNY     79  70  73 VRB3      30.02R
$$

MSZ059>079-281500-
SOUTH MISSISSIPPI

CITY           SKY/WX    TMP DP  RH WIND       PRES   REMARKS
COLUMBIA       FAIR      81  70  69 SE8       30.06S
HATTIESBURG    SUNNY     78  69  73 SE7       30.05R
LAUREL         FAIR      78  68  72 E7        30.06R
MCCOMB         SUNNY     79  68  69 SE9       30.03R
NATCHEZ        SUNNY     80  70  71 E5        30.03R
PINE BELT      SUNNY     79  68  69 E6        30.07R
$$

MSZ080>082-281500-
COASTAL MISSISSIPPI

CITY           SKY/WX    TMP DP  RH WIND       PRES   REMARKS
BAY ST LOUIS   MOSUNNY   79  73  83 E6        30.02S
BILOXI         MOSUNNY   78  72  81 E5        30.02S
PASCAGOULA     CLOUDY    79  72  79 E7        30.03R
GULFPORT       MOSUNNY   79  72  79 NE5       30.02R
$$

LAZ007>009-015>016-023>026-281500-
NORTHEAST LOUISIANA

CITY           SKY/WX    TMP DP  RH WIND       PRES   REMARKS
BASTROP        FAIR      79  72  79 SE7       30.05S
TALLULAH/VBURG SUNNY     78  69  73 E5        30.06R
VIDALIA        FAIR      78  70  76 E3        30.01S
$$




USA.gov is the U.S. government's official web portal to all federal, state and local government web resources and services.